Grand Forks AFB, ND

11:33 PM CDT on March 23, 2017 (GMT -0500)
Grand Forks Air Force Base

Weather History for KRDR - August, 2013

Change the Weather History Date:

Saturday, August 24, 2013

  Actual Average Record
Temperature  
Mean Temperature 81 °F -  
Max Temperature 93 °F 78 °F 95 °F (1996)
Min Temperature 71 °F 54 °F 38 °F (2008)
Cooling Degree Days 16    
Growing Degree Days 31 (Base 50)    
Moisture  
Dew Point 72 °F    
Average Humidity 78    
Maximum Humidity 100    
Minimum Humidity 53    
Precipitation  
Precipitation 0.00 in - - ()
Sea Level Pressure  
Sea Level Pressure 29.77 in    
Wind  
Wind Speed 11 mph (SSW)    
Max Wind Speed 21 mph    
Max Gust Speed 25 mph    
Visibility 10 miles    
Events Thunderstorm    
Averages and records for this station are not official NWS values.
T = Trace of Precipitation, MM = Missing Value Source: NWS Daily Summary

Daily Weather History Graph

Daily Weather History Graph

Search for Another Location

Airport or City:

Trip Planner

Search our weather history database for the weather conditions in past years. The results will help you decide how hot, cold, wet, or windy it might be!

Date:

Astronomy

Aug. 24, 2013 Rise Set
Actual Time 6:37 AM CDT 8:25 PM CDT
Civil Twilight 6:04 AM CDT 8:58 PM CDT
Nautical Twilight 5:23 AM CDT 9:38 PM CDT
Astronomical Twilight 4:38 AM CDT 10:23 PM CDT
Moon 9:55 PM CDT 11:01 AM CDT
Length of Visible Light 14h 54m
Length of Day
13h 48m
Waning Gibbous, 84% of the Moon is Illuminated
Aug 24
Waning Gibbous
Aug 28
Last Quarter
Sep 5
New
Sep 12
First Quarter
Sep 19
Full

Hourly Weather History & Observations

Time (CDT) Temp. Heat Index Dew Point Humidity Pressure Visibility Wind Dir Wind Speed Gust Speed Precip Events Conditions
12:58 AM 72.7 °F - 67.5 °F 84% 29.87 in 10.0 mi South 8.1 mph - N/A   Clear
1:58 AM 73.4 °F - 69.4 °F 87% 29.86 in 10.0 mi South 12.7 mph - N/A   Clear
2:58 AM 74.1 °F - 70.7 °F 89% 29.85 in 10.0 mi South 12.7 mph 20.7 mph N/A   Clear
3:58 AM 73.6 °F - 71.2 °F 92% 29.84 in 10.0 mi South 13.8 mph - N/A   Clear
4:58 AM 73.2 °F - 71.4 °F 94% 29.83 in 10.0 mi South 12.7 mph - N/A   Clear
5:58 AM 72.5 °F - 71.6 °F 97% 29.83 in 10.0 mi South 10.4 mph - N/A   Clear
6:58 AM 72.1 °F - 71.2 °F 97% 29.83 in 10.0 mi South 10.4 mph - N/A   Partly Cloudy
7:58 AM 73.6 °F - 70.9 °F 91% 29.82 in 10.0 mi South 15.0 mph 19.6 mph N/A   Clear
8:58 AM 76.3 °F - 70.5 °F 82% 29.81 in 10.0 mi South 18.4 mph 23.0 mph N/A   Clear
9:58 AM 79.5 °F - 70.7 °F 74% 29.79 in 10.0 mi SSW 20.7 mph 24.2 mph N/A   Clear
10:58 AM 80.2 °F 83.9 °F 71.2 °F 74% 29.78 in 10.0 mi SSW 15.0 mph - N/A   Clear
11:58 AM 85.1 °F 91.1 °F 72.0 °F 65% 29.77 in 10.0 mi SSW 15.0 mph 24.2 mph N/A   Clear
12:58 PM 88.2 °F 95.5 °F 72.5 °F 60% 29.76 in 10.0 mi SSW 16.1 mph 23.0 mph N/A   Clear
1:58 PM 89.6 °F 97.2 °F 72.5 °F 57% 29.75 in 10.0 mi SSW 16.1 mph 25.3 mph N/A   Scattered Clouds
2:58 PM 91.8 °F 100.3 °F 73.0 °F 54% 29.72 in 10.0 mi SSW 16.1 mph - N/A   Clear
3:57 PM 89.6 °F 96.2 °F 71.6 °F 55% 29.72 in 10.0 mi SW 12.7 mph - N/A   Mostly Cloudy
4:03 PM 89.6 °F 98.2 °F 73.4 °F 59% 29.73 in 10.0 mi SSW 9.2 mph - N/A Thunderstorm Mostly Cloudy
4:57 PM 91.4 °F 100.1 °F 73.4 °F 55% 29.70 in 10.0 mi South 5.8 mph - N/A   Partly Cloudy
4:58 PM 91.0 °F 100.4 °F 73.8 °F 57% 29.71 in 10.0 mi South 5.8 mph - N/A   Partly Cloudy
5:58 PM 91.6 °F 99.3 °F 72.1 °F 53% 29.72 in 10.0 mi SW 9.2 mph - N/A   Partly Cloudy
6:58 PM 89.6 °F 97.2 °F 72.3 °F 57% 29.71 in 10.0 mi SSW 8.1 mph - N/A   Scattered Clouds
7:58 PM 85.8 °F 94.6 °F 75.0 °F 70% 29.70 in 10.0 mi NNW 2.3 mph - N/A   Clear
8:58 PM 79.9 °F - 75.4 °F 86% 29.72 in 10.0 mi North 4.6 mph - N/A   Mostly Cloudy
9:58 PM 77.4 °F - 74.3 °F 90% 29.75 in 10.0 mi North 6.9 mph - N/A   Partly Cloudy
10:58 PM 74.5 °F - 74.1 °F 99% 29.77 in 10.0 mi North 4.6 mph - N/A   Clear
11:43 PM 73.4 °F - 71.6 °F 94% 29.77 in 7.0 mi West 2.3 mph - N/A   Clear
11:53 PM 71.6 °F - 71.6 °F 100% 29.77 in 10.0 mi WNW 3.5 mph - N/A   Clear
11:58 PM 71.6 °F - 71.6 °F 100% 29.78 in 10.0 mi West 3.5 mph - N/A   Clear